Weather History for Eagle, CO

Change the Weather History Date:

Thursday, September 12, 2013

  Actual Average Record
Temperature  
Mean Temperature 60 °F -  
Max Temperature 71 °F 73 °F 91 °F (1990)
Min Temperature 50 °F 40 °F 24 °F (1951)
Degree Days  
Heating Degree Days 4    
Growing Degree Days 10 (Base 50)    
Moisture  
Dew Point 54 °F    
Average Humidity 90    
Maximum Humidity 100    
Minimum Humidity 53    
Precipitation  
Precipitation 0.29 in - - ()
Sea Level Pressure  
Sea Level Pressure 30.30 in    
Wind  
Wind Speed 3 mph (SE)    
Max Wind Speed 8 mph    
Max Gust Speed -    
Visibility 10 miles    
Events Rain , Thunderstorm    
Averages and records for this station are not official NWS values.
T = Trace of Precipitation, MM = Missing Value Source: NWS Daily Summary

Daily Weather History Graph

Daily Weather History Graph

Search for Another Location

Airport:

Trip Planner

Search our weather history database for the weather conditions in past years. The results will help you decide how hot, cold, wet, or windy it might be!

Date:

Astronomy

Sep. 12, 2013 Rise Set
Actual Time 6:46 AM MDT 7:20 PM MDT
Civil Twilight 6:19 AM MDT 7:47 PM MDT
Nautical Twilight 5:47 AM MDT 8:19 PM MDT
Astronomical Twilight 5:14 AM MDT 8:52 PM MDT
Moon 2:15 PM MDT (9/12) No Moon Set
Length of Visible Light 13h 28m
Length of Day
12h 34m
Waxing Crescent, 51% of the Moon is Illuminated
Sep 12
Waxing Crescent
Sep 19
Full
Sep 26
Last Quarter
Oct 4
New
Oct 11
First Quarter

Hourly Weather History & Observations

Time (MDT) Temp. Dew Point Humidity Pressure Visibility Wind Dir Wind Speed Gust Speed Precip Events Conditions
12:15 AM 53.6 °F 53.6 °F 100% 30.32 in 10.0 mi East 4.6 mph - N/A   Overcast
12:35 AM 53.6 °F 53.6 °F 100% 30.32 in 10.0 mi ENE 6.9 mph - N/A   Overcast
12:55 AM 53.6 °F 53.6 °F 100% 30.32 in 10.0 mi East 3.5 mph - N/A   Mostly Cloudy
1:15 AM 53.6 °F 53.6 °F 100% 30.32 in 10.0 mi Calm Calm - N/A   Mostly Cloudy
1:35 AM 51.8 °F 50.0 °F 94% 30.32 in 10.0 mi East 3.5 mph - 0.01 in   Overcast
1:55 AM 51.8 °F 51.8 °F 100% 30.32 in 10.0 mi East 4.6 mph - 0.01 in   Overcast
2:15 AM 51.8 °F 50.0 °F 94% 30.32 in 10.0 mi ESE 4.6 mph - N/A   Overcast
2:35 AM 51.8 °F 50.0 °F 94% 30.33 in 10.0 mi ENE 3.5 mph - N/A   Overcast
2:55 AM 51.8 °F 50.0 °F 94% 30.33 in 10.0 mi Calm Calm - N/A   Mostly Cloudy
3:15 AM 51.8 °F 51.8 °F 100% 30.33 in 10.0 mi Calm Calm - N/A   Scattered Clouds
3:35 AM 51.8 °F 51.8 °F 100% 30.33 in 10.0 mi Calm Calm - N/A   Scattered Clouds
3:55 AM 51.8 °F 51.8 °F 100% 30.32 in 10.0 mi Calm Calm - N/A   Mostly Cloudy
4:35 AM 51.8 °F 50.0 °F 94% 30.32 in 10.0 mi Calm Calm - N/A   Mostly Cloudy
4:55 AM 50.0 °F 50.0 °F 100% 30.32 in 10.0 mi Calm Calm - N/A   Scattered Clouds
5:35 AM 50.0 °F 50.0 °F 100% 30.33 in 10.0 mi Calm Calm - N/A   Partly Cloudy
5:55 AM 50.0 °F 50.0 °F 100% 30.33 in 10.0 mi Calm Calm - N/A   Clear
6:15 AM 50.0 °F 50.0 °F 100% 30.34 in 10.0 mi East 3.5 mph - N/A   Scattered Clouds
6:35 AM 50.0 °F 50.0 °F 100% 30.34 in 10.0 mi Calm Calm - N/A   Overcast
6:50 AM 50.0 °F 50.0 °F 100% 30.34 in 10.0 mi Calm Calm - N/A   Mostly Cloudy
6:55 AM 50.0 °F 50.0 °F 100% 30.34 in 10.0 mi Calm Calm - N/A   Mostly Cloudy
7:50 AM 51.8 °F 51.8 °F 100% 30.36 in 10.0 mi Calm Calm - N/A   Mostly Cloudy
8:50 AM 53.6 °F 53.6 °F 100% 30.36 in 10.0 mi Calm Calm - N/A   Mostly Cloudy
9:50 AM 57.2 °F 53.6 °F 88% 30.35 in 10.0 mi Calm Calm - N/A   Scattered Clouds
10:50 AM 60.8 °F 53.6 °F 77% 30.34 in 10.0 mi Calm Calm - N/A   Scattered Clouds
11:50 AM 66.2 °F 53.6 °F 64% 30.31 in 10.0 mi SSW 4.6 mph - N/A   Scattered Clouds
12:50 PM 71.6 °F 53.6 °F 53% 30.27 in 10.0 mi West 6.9 mph - N/A   Mostly Cloudy
1:50 PM 66.2 °F 60.8 °F 83% 30.25 in 10.0 mi Variable 6.9 mph - N/A Rain , Thunderstorm Light Thunderstorms and Rain
2:50 PM 69.8 °F 59.0 °F 68% 30.23 in 10.0 mi Calm Calm - N/A   Mostly Cloudy
3:50 PM 62.6 °F 55.4 °F 77% 30.24 in 10.0 mi SW 5.8 mph - N/A Rain Light Rain
4:50 PM 62.6 °F 55.4 °F 77% 30.26 in 10.0 mi West 8.1 mph - N/A   Mostly Cloudy
5:50 PM 66.2 °F 53.6 °F 64% 30.23 in 10.0 mi Calm Calm - N/A   Scattered Clouds
6:50 PM 68.0 °F 53.6 °F 60% 30.23 in 10.0 mi Calm Calm - N/A   Scattered Clouds
7:15 PM 66.2 °F 53.6 °F 64% 30.22 in 10.0 mi East 3.5 mph - N/A   Partly Cloudy
7:35 PM 64.4 °F 55.4 °F 73% 30.22 in 10.0 mi Calm Calm - N/A   Partly Cloudy
7:55 PM 64.4 °F 55.4 °F 73% 30.23 in 10.0 mi Calm Calm - N/A   Mostly Cloudy
8:15 PM 64.4 °F 55.4 °F 73% 30.26 in 9.0 mi ENE 3.5 mph - 0.02 in   Overcast
8:35 PM 60.8 °F 57.2 °F 88% 30.27 in 7.0 mi NE 4.6 mph - 0.07 in   Overcast
8:55 PM 59.0 °F 57.2 °F 94% 30.28 in 10.0 mi Calm Calm - 0.10 in   Overcast
9:15 PM 59.0 °F 57.2 °F 94% 30.28 in 10.0 mi West 6.9 mph - 0.01 in   Overcast
9:35 PM 57.2 °F 57.2 °F 100% 30.29 in 8.0 mi West 5.8 mph - 0.04 in   Overcast
9:55 PM 57.2 °F 57.2 °F 100% 30.29 in 10.0 mi Calm Calm - 0.05 in   Overcast
10:15 PM 57.2 °F 57.2 °F 100% 30.29 in 10.0 mi West 3.5 mph - 0.03 in   Overcast
10:35 PM 57.2 °F 57.2 °F 100% 30.29 in 10.0 mi Calm Calm - 0.10 in   Overcast
10:55 PM 57.2 °F 57.2 °F 100% 30.29 in 10.0 mi SSW 3.5 mph - 0.10 in   Overcast
11:15 PM 57.2 °F 57.2 °F 100% 30.28 in 10.0 mi SW 3.5 mph - 0.02 in   Overcast
11:35 PM 57.2 °F 57.2 °F 100% 30.28 in 8.0 mi South 4.6 mph - 0.03 in   Overcast